Location: Complexul Astronomic Baia Mare
(47.6577°N, 23.5639°E)
Time: 06:42:59
(UTC+03:00)

ISS - Pass Details

Date: 17 May 2017
Orbit: 402 x 408 km, 51.6° (Epoch: 29 May)

Event Time Altitude Azimuth Distance (km) Brightness Sun altitude
Exits shadow 02:40:58 65° 66° (ENE) 451 -3.6 -20.7°
Drops below altitude 10° 02:43:50 10° 66° (ENE) 1,466 -0.4 -20.6°
Sets 02:45:55 0° 67° (ENE) 2,327 0.7 -20.4°
